Date String (YYYY-MM-DD hh:mm:ss) UTC,Instrument flags,Ambient pressure (hPa),Sample flow (lpm),Bypass flow (lpm),Sample temperature (°C),Ambient temperature (°C),ASC tube jacket temperature (°C),LED temperature (°C),Box temperature (°C),Sample RH (%),Span deviation,Mass concentration (μg/m³),Mass concentration (μg/m³),Mass concentration (μg/m³)
DateTimeUTC,F1_M11,P_M11,Q1_M11,Q2_M11,T1_M11,T2_M11,T3_M11,T4_M11,T5_M11,U1_M11,ZSPAN_M11,X2_M11,X0_M11,X1_M11
2022-04-19 18:00:00,,0815.1,4.99,0.00,27.5,26.5,00.0,36.2,29.3,06.2,0000.0,0005.25,0014.37,0003.09
2022-04-19 18:01:00,,0815.0,5.01,0.00,27.5,26.6,00.0,36.3,29.4,06.4,0000.0,0005.25,0014.29,0003.09
2022-04-19 18:02:00,,0814.9,5.00,0.00,27.5,26.6,00.0,36.3,29.4,06.3,0000.0,0005.38,0014.43,0003.12
2022-04-19 18:03:00,,0814.8,5.00,0.00,27.5,26.6,00.0,36.3,29.4,06.5,0000.0,0005.43,0015.10,0003.12
2022-04-19 18:04:00,,0814.9,5.01,0.00,27.5,26.7,00.0,36.3,29.4,06.3,0000.0,0005.41,0015.08,0003.08
2022-04-19 18:05:00,,0814.9,4.99,0.00,27.5,26.7,00.0,36.3,29.4,06.0,0000.0,0005.41,0015.10,0003.10
2022-04-19 18:06:00,,0814.9,5.01,0.00,27.5,26.7,00.0,36.3,29.4,06.1,0000.0,0005.35,0014.96,0003.11
2022-04-19 18:07:00,,0814.9,4.98,0.00,27.6,26.7,00.0,36.4,29.4,06.1,0000.0,0005.26,0014.64,0003.09
2022-04-19 18:08:00,,0814.7,5.01,0.00,27.6,26.7,00.0,36.4,29.5,06.3,0000.0,0005.20,0013.72,0003.06
2022-04-19 18:09:00,,0814.8,5.01,0.00,27.6,26.7,00.0,36.4,29.5,06.2,0000.0,0005.16,0013.34,0003.07
2022-04-19 18:10:00,,0814.9,4.99,0.00,27.6,26.7,00.0,36.4,29.5,06.2,0000.0,0005.23,0013.51,0003.10
2022-04-19 18:11:00,,0814.9,5.01,0.00,27.6,26.7,00.0,36.4,29.5,06.2,0000.0,0005.15,0012.92,0003.10
2022-04-19 18:12:00,,0814.7,4.99,0.00,27.7,26.7,00.0,36.4,29.5,06.4,0000.0,0005.18,0013.33,0003.10
2022-04-19 18:13:00,,0814.8,4.99,0.00,27.7,26.8,00.0,36.5,29.6,06.5,0000.0,0005.10,0013.06,0003.08
2022-04-19 18:14:00,,0814.9,5.02,0.00,27.7,26.8,00.0,36.5,29.6,06.2,0000.0,0005.11,0012.58,0003.08
2022-04-19 18:15:00,,0814.7,4.98,0.00,27.7,26.8,00.0,36.5,29.6,06.2,0000.0,0005.17,0012.51,0003.10
2022-04-19 18:16:00,,0814.7,5.01,0.00,27.7,26.8,00.0,36.5,29.6,06.3,0000.0,0005.13,0012.35,0003.06
2022-04-19 18:17:00,,0814.7,4.99,0.00,27.7,26.8,00.0,36.5,29.6,06.4,0000.0,0005.15,0012.36,0003.04
2022-04-19 18:18:00,,0814.7,5.00,0.00,27.7,26.9,00.0,36.5,29.6,06.2,0000.0,0005.21,0012.64,0003.04
2022-04-19 18:19:00,,0814.7,4.99,0.00,27.8,26.9,00.0,36.6,29.6,06.3,0000.0,0005.23,0013.19,0003.03
2022-04-19 18:20:00,,0814.6,5.00,0.00,27.8,26.9,00.0,36.6,29.7,06.4,0000.0,0005.27,0013.31,0003.02
2022-04-19 18:21:00,,0814.7,5.02,0.00,27.8,26.9,00.0,36.6,29.7,06.4,0000.0,0005.18,0013.25,0002.98
2022-04-19 18:22:00,,0814.7,4.99,0.00,27.8,26.9,00.0,36.6,29.7,06.1,0000.0,0005.22,0013.85,0002.97
2022-04-19 18:23:00,,0814.7,4.99,0.00,27.8,27.0,00.0,36.6,29.7,06.1,0000.0,0005.23,0013.46,0002.94
2022-04-19 18:24:00,,0814.7,5.02,0.00,27.8,27.0,00.0,36.6,29.7,06.3,0000.0,0005.26,0013.45,0002.93
2022-04-19 18:25:00,,0814.6,5.00,0.00,27.8,27.0,00.0,36.7,29.7,06.1,0000.0,0005.22,0013.26,0002.94
2022-04-19 18:26:00,,0814.8,5.00,0.00,27.9,27.0,00.0,36.7,29.7,06.1,0000.0,0005.14,0013.06,0002.93
2022-04-19 18:27:00,,0814.6,5.00,0.00,27.9,27.0,00.0,36.7,29.8,06.1,0000.0,0005.19,0013.76,0002.94
2022-04-19 18:28:00,,0814.7,4.99,0.00,27.9,27.1,00.0,36.7,29.8,06.1,0000.0,0005.19,0013.82,0002.94
2022-04-19 18:29:00,,0814.8,5.01,0.00,27.9,27.1,00.0,36.7,29.8,06.3,0000.0,0005.15,0013.67,0002.95
2022-04-19 18:30:00,,0814.4,5.00,0.00,28.0,27.1,00.0,36.7,29.8,06.5,0000.0,0005.13,0013.59,0002.96
2022-04-19 18:31:00,,0814.4,4.98,0.00,28.0,27.1,00.0,36.8,29.8,06.4,0000.0,0005.11,0014.66,0002.98
2022-04-19 18:32:00,,0814.4,5.01,0.00,28.0,27.2,00.0,36.8,29.9,06.4,0000.0,0005.18,0015.73,0003.00
2022-04-19 18:33:00,,0814.3,4.98,0.00,28.0,27.2,00.0,36.8,29.9,06.4,0000.0,0005.19,0015.52,0003.01
2022-04-19 18:34:00,,0814.4,5.01,0.00,28.0,27.2,00.0,36.8,29.9,06.3,0000.0,0005.15,0015.60,0003.02
2022-04-19 18:35:00,,0814.4,4.99,0.00,28.0,27.2,00.0,36.8,29.9,06.3,0000.0,0005.09,0015.84,0003.00
2022-04-19 18:36:00,,0814.4,5.01,0.00,28.0,27.2,00.0,36.8,29.9,06.1,0000.0,0005.08,0015.80,0002.97
2022-04-19 18:37:00,,0814.5,5.01,0.00,28.1,27.2,00.0,36.8,29.9,06.2,0000.0,0005.09,0015.70,0002.95
2022-04-19 18:38:00,,0814.3,4.98,0.00,28.1,27.3,00.0,36.9,30.0,06.4,0000.0,0005.07,0015.14,0002.93
2022-04-19 18:39:00,,0814.4,5.00,0.00,28.1,27.3,00.0,36.9,30.0,06.4,0000.0,0005.12,0015.49,0002.92
2022-04-19 18:40:00,,0814.6,5.00,0.00,28.1,27.3,00.0,36.9,30.0,06.3,0000.0,0005.17,0016.11,0002.90
2022-04-19 18:41:00,,0815.0,5.03,0.00,28.1,27.3,00.0,36.9,30.0,06.2,0000.0,0005.18,0015.91,0002.86
2022-04-19 18:42:00,,0815.0,4.99,0.00,28.1,27.3,00.0,36.9,30.0,06.5,0000.0,0005.20,0014.88,0002.84
2022-04-19 18:43:00,,0814.9,5.01,0.00,28.2,27.3,00.0,36.9,30.0,06.4,0000.0,0005.11,0013.56,0002.81
2022-04-19 18:44:00,,0815.0,5.00,0.00,28.2,27.3,00.0,37.0,30.0,06.4,0000.0,0005.08,0013.18,0002.80
2022-04-19 18:45:00,,0814.8,4.99,0.00,28.2,27.3,00.0,37.0,30.1,06.3,0000.0,0005.06,0013.93,0002.80
2022-04-19 18:46:00,,0814.4,5.00,0.00,28.2,27.4,00.0,37.0,30.1,06.5,0000.0,0005.07,0013.47,0002.78
2022-04-19 18:47:00,,0814.7,5.00,0.00,28.2,27.4,00.0,37.0,30.1,06.4,0000.0,0005.14,0013.71,0002.78
2022-04-19 18:48:00,,0814.6,5.01,0.00,28.3,27.4,00.0,37.0,30.1,06.2,0000.0,0005.17,0013.87,0002.78
2022-04-19 18:49:00,,0814.4,5.01,0.00,28.3,27.4,00.0,37.1,30.1,06.2,0000.0,0005.09,0013.54,0002.78
2022-04-19 18:50:00,,0814.4,5.00,0.00,28.3,27.4,00.0,37.1,30.1,06.2,0000.0,0005.03,0013.09,0002.77
2022-04-19 18:51:00,,0814.4,5.01,0.00,28.3,27.4,00.0,37.1,30.2,06.2,0000.0,0004.98,0012.61,0002.77
2022-04-19 18:52:00,,0814.3,4.99,0.00,28.4,27.5,00.0,37.1,30.2,06.4,0000.0,0004.94,0012.34,0002.79
2022-04-19 18:53:00,,0814.3,5.00,0.00,28.4,27.5,00.0,37.1,30.2,06.2,0000.0,0004.95,0012.34,0002.78
2022-04-19 18:54:00,,0814.3,5.00,0.00,28.4,27.5,00.0,37.2,30.2,06.3,0000.0,0005.00,0012.68,0002.77
2022-04-19 18:55:00,,0814.3,5.02,0.00,28.4,27.5,00.0,37.2,30.2,06.3,0000.0,0005.00,0012.67,0002.77
2022-04-19 18:56:00,,0814.3,4.98,0.00,28.4,27.5,00.0,37.2,30.2,06.1,0000.0,0004.98,0011.65,0002.78
2022-04-19 18:57:00,,0814.3,5.00,0.00,28.4,27.5,00.0,37.2,30.3,06.4,0000.0,0005.01,0011.68,0002.80
2022-04-19 18:58:00,,0814.5,5.00,0.00,28.5,27.6,00.0,37.2,30.3,06.4,0000.0,0004.94,0011.42,0002.81
2022-04-19 18:59:00,,0814.3,4.99,0.00,28.5,27.6,00.0,37.3,30.3,06.7,0000.0,0004.91,0012.00,0002.82
